| time (UTC) | temp C | wind direction | speed KPH | gust KPH | rain 1hr cm | rain 24hr cm | rain mn cm | humidity % | barometer mb |
| 20260906173630 | 26 | 129 | 9.7 | 19.3 | 0.00 | 0.00 | 0.00 | 71 | 1019.4 |
| 20260906173433 | 26 | 144 | 8.0 | 16.1 | 0.00 | 0.00 | 0.00 | 71 | 1019.4 |
| 20260906172630 | 26 | 119 | 8.0 | 16.1 | 0.00 | 0.00 | 0.00 | 74 | 1019.4 |
| 20260906172431 | 26 | 86 | 8.0 | 14.5 | 0.00 | 0.00 | 0.00 | 73 | 1019.4 |
| 20260906171629 | 25 | 119 | 9.7 | 14.5 | 0.00 | 0.00 | 0.00 | 74 | 1019.4 |
| 20260906171130 | 25 | 92 | 8.0 | 14.5 | 0.00 | 0.00 | 0.00 | 74 | 1019.6 |
| 20260906170630 | 25 | 120 | 8.0 | 19.3 | 0.00 | 0.00 | 0.00 | 76 | 1019.7 |
| 20260906170129 | 25 | 188 | 11.3 | 19.3 | 0.00 | 0.00 | 0.00 | 75 | 1019.8 |
| 20260906165927 | 25 | 188 | 9.7 | 19.3 | 0.00 | 0.00 | 0.00 | 74 | 1019.7 |
| 20260906165128 | 25 | 159 | 8.0 | 19.3 | 0.00 | 0.00 | 0.00 | 75 | 1019.7 |
| 20260906164629 | 25 | 132 | 8.0 | 16.1 | 0.00 | 0.00 | 0.00 | 77 | 1019.7 |
| 20260906164424 | 25 | 109 | 6.4 | 16.1 | 0.00 | 0.00 | 0.00 | 77 | 1019.8 |
| 20260906163628 | 24 | 134 | 6.4 | 17.7 | 0.00 | 0.00 | 0.00 | 78 | 1019.8 |
| 20260906163127 | 24 | 108 | 6.4 | 17.7 | 0.00 | 0.00 | 0.00 | 78 | 1020.1 |
| 20260906162627 | 23 | 141 | 8.0 | 19.3 | 0.00 | 0.00 | 0.00 | 79 | 1020.1 |
| 20260906162126 | 23 | 92 | 9.7 | 19.3 | 0.00 | 0.00 | 0.00 | 79 | 1020.1 |
| 20260906161658 | 23 | 94 | 8.0 | 16.1 | 0.00 | 0.00 | 0.00 | 78 | 1020.1 |
| 20260906160912 | 23 | 116 | 6.4 | 16.1 | 0.00 | 0.00 | 0.00 | 79 | 1020.4 |
| 20260906160108 | 23 | 162 | 8.0 | 17.7 | 0.00 | 0.00 | 0.00 | 80 | 1020.4 |
| 20260906155606 | 23 | 190 | 9.7 | 19.3 | 0.00 | 0.00 | 0.00 | 80 | 1020.3 |
| 20260906155107 | 23 | 171 | 9.7 | 19.3 | 0.00 | 0.00 | 0.00 | 81 | 1020.2 |
| 20260906154606 | 23 | 118 | 8.0 | 17.7 | 0.00 | 0.00 | 0.00 | 82 | 1019.9 |
| 20260906154355 | 23 | 82 | 9.7 | 19.3 | 0.00 | 0.00 | 0.00 | 82 | 1020.1 |
| 20260906153608 | 23 | 155 | 9.7 | 20.9 | 0.00 | 0.00 | 0.00 | 82 | 1020.2 |
| 20260906153110 | 22 | 148 | 9.7 | 20.9 | 0.00 | 0.00 | 0.00 | 83 | 1020.3 |
| 20260906152607 | 22 | 147 | 8.0 | 19.3 | 0.00 | 0.00 | 0.00 | 84 | 1020.4 |
| 20260906152359 | 22 | 174 | 8.0 | 14.5 | 0.00 | 0.00 | 0.00 | 85 | 1020.5 |
| 20260906151606 | 22 | 115 | 8.0 | 14.5 | 0.00 | 0.00 | 0.00 | 85 | 1020.5 |
| 20260906151101 | 22 | 147 | 8.0 | 14.5 | 0.00 | 0.00 | 0.00 | 85 | 1020.4 |
| 20260906150601 | 22 | 116 | 8.0 | 17.7 | 0.00 | 0.00 | 0.00 | 85 | 1020.4 |
| 20260906145600 | 21 | 153 | 8.0 | 16.1 | 0.00 | 0.00 | 0.00 | 87 | 1020.2 |
| 20260906145102 | 21 | 132 | 8.0 | 12.9 | 0.00 | 0.00 | 0.00 | 88 | 1020.2 |
| 20260906144600 | 21 | 199 | 8.0 | 16.1 | 0.00 | 0.00 | 0.00 | 90 | 1020.3 |
| 20260906144101 | 21 | 128 | 8.0 | 16.1 | 0.00 | 0.00 | 0.00 | 89 | 1020.3 |
| 20260906143601 | 21 | 86 | 8.0 | 14.5 | 0.00 | 0.00 | 0.00 | 90 | 1020.3 |
| 20260906143101 | 20 | 98 | 6.4 | 16.1 | 0.00 | 0.00 | 0.00 | 91 | 1020.2 |
| 20260906142600 | 20 | 161 | 6.4 | 16.1 | 0.00 | 0.00 | 0.00 | 91 | 1020.3 |
| 20260906142359 | 20 | 117 | 6.4 | 12.9 | 0.00 | 0.00 | 0.00 | 92 | 1020.3 |
| 20260906141601 | 20 | 96 | 6.4 | 12.9 | 0.00 | 0.00 | 0.00 | 92 | 1020.3 |
| 20260906141101 | 20 | 143 | 4.8 | 12.9 | 0.00 | 0.00 | 0.00 | 92 | 1020.3 |
| 20260906140602 | 20 | 94 | 4.8 | 12.9 | 0.00 | 0.00 | 0.00 | 93 | 1020.3 |
| 20260906140357 | 20 | 96 | 4.8 | 12.9 | 0.00 | 0.00 | 0.00 | 93 | 1020.2 |
| 20260906135603 | 20 | 108 | 4.8 | 12.9 | 0.00 | 0.00 | 0.00 | 93 | 1020.2 |
| 20260906135102 | 20 | 167 | 6.4 | 19.3 | 0.00 | 0.00 | 0.00 | 93 | 1020.1 |
| 20260906134602 | 20 | 136 | 8.0 | 19.3 | 0.00 | 0.00 | 0.00 | 93 | 1020.1 |
| 20260906134101 | 20 | 138 | 6.4 | 14.5 | 0.00 | 0.00 | 0.00 | 93 | 1019.9 |
| 20260906133857 | 20 | 101 | 4.8 | 14.5 | 0.00 | 0.00 | 0.00 | 93 | 1019.8 |
| 20260906133101 | 20 | 163 | 6.4 | 14.5 | 0.00 | 0.00 | 0.00 | 93 | 1019.8 |
| 20260906132601 | 20 | 94 | 6.4 | 14.5 | 0.00 | 0.00 | 0.00 | 93 | 1019.9 |
| 20260906132102 | 20 | 111 | 6.4 | 14.5 | 0.00 | 0.00 | 0.00 | 93 | 1019.8 |
| 20260906131601 | 20 | 138 | 4.8 | 12.9 | 0.00 | 0.00 | 0.00 | 93 | 1019.8 |
| 20260906131102 | 20 | 95 | 4.8 | 11.3 | 0.00 | 0.00 | 0.00 | 94 | 1019.8 |
| 20260906130600 | 20 | 136 | 4.8 | 9.7 | 0.00 | 0.00 | 0.00 | 94 | 1019.8 |
| 20260906130353 | 19 | 97 | 4.8 | 9.7 | 0.00 | 0.00 | 0.00 | 94 | 1019.8 |
| 20260906125909 | 19 | 113 | 4.8 | 9.7 | 0.00 | 0.00 | 0.00 | 94 | 1019.6 |
| 20260906125102 | 19 | 104 | 3.2 | 6.4 | 0.00 | 0.00 | 0.00 | 94 | 1019.7 |
| 20260906124601 | 19 | 109 | 1.6 | 6.4 | 0.00 | 0.00 | 0.00 | 95 | 1019.7 |
| 20260906124102 | 19 | 105 | 1.6 | 3.2 | 0.00 | 0.00 | 0.00 | 95 | 1019.7 |
| 20260906123601 | 19 | 105 | 1.6 | 3.2 | 0.00 | 0.00 | 0.00 | 94 | 1019.7 |
| 20260906123101 | 19 | 106 | 1.6 | 6.4 | 0.00 | 0.00 | 0.00 | 94 | 1019.7 |
| 20260906122601 | 18 | 106 | 1.6 | 6.4 | 0.00 | 0.00 | 0.00 | 95 | 1019.7 |
| 20260906122101 | 18 | 109 | 1.6 | 6.4 | 0.00 | 0.00 | 0.00 | 94 | 1019.6 |
| 20260906121601 | 18 | 115 | 1.6 | 6.4 | 0.00 | 0.00 | 0.00 | 94 | 1019.4 |
| 20260906121355 | 18 | 146 | 1.6 | 4.8 | 0.00 | 0.00 | 0.00 | 94 | 1019.4 |
| 20260906120628 | 18 | 146 | 1.6 | 4.8 | 0.00 | 0.00 | 0.00 | 94 | 1019.3 |
| 20260906115603 | 18 | 97 | 1.6 | 3.2 | 0.00 | 0.00 | 0.00 | 94 | 1019.3 |
| 20260906115103 | 18 | 97 | 1.6 | 3.2 | 0.00 | 0.00 | 0.00 | 94 | 1019.2 |
| 20260906114852 | 18 | 97 | 1.6 | 3.2 | 0.00 | 0.00 | 0.00 | 94 | 1019.2 |
| 20260906114359 | 18 | 97 | 1.6 | 3.2 | 0.00 | 0.00 | 0.00 | 94 | 1019.2 |
| 20260906113602 | 18 | 97 | 1.6 | 3.2 | 0.00 | 0.00 | 0.00 | 94 | 1019.2 |
| 20260906113104 | 18 | 97 | 0.0 | 3.2 | 0.00 | 0.00 | 0.00 | 93 | 1019.2 |
| 20260906112603 | 18 | 97 | 0.0 | 3.2 | 0.00 | 0.00 | 0.00 | 93 | 1019.2 |
| 20260906112102 | 18 | 97 | 0.0 | 1.6 | 0.00 | 0.00 | 0.00 | 93 | 1019.1 |
| 20260906111852 | 19 | 97 | 0.0 | 1.6 | 0.00 | 0.00 | 0.00 | 93 | 1019.1 |
| 20260906111101 | 19 | 97 | 0.0 | 1.6 | 0.00 | 0.00 | 0.00 | 93 | 1019.1 |
| 20260906110604 | 19 | 97 | 0.0 | 1.6 | 0.00 | 0.00 | 0.00 | 93 | 1019.0 |
| 20260906105603 | 19 | 97 | 1.6 | 4.8 | 0.00 | 0.00 | 0.00 | 93 | 1019.0 |
| 20260906105101 | 19 | 97 | 0.0 | 4.8 | 0.00 | 0.00 | 0.00 | 93 | 1018.9 |
| 20260906104602 | 19 | 97 | 0.0 | 4.8 | 0.00 | 0.00 | 0.00 | 93 | 1018.8 |
| 20260906104102 | 19 | 97 | 0.0 | 4.8 | 0.00 | 0.00 | 0.00 | 93 | 1018.9 |
| 20260906103852 | 20 | 97 | 1.6 | 3.2 | 0.00 | 0.00 | 0.00 | 92 | 1018.8 |
| 20260906103104 | 20 | 97 | 1.6 | 3.2 | 0.00 | 0.00 | 0.00 | 92 | 1018.8 |
| 20260906102602 | 20 | 97 | 1.6 | 3.2 | 0.00 | 0.00 | 0.00 | 92 | 1018.7 |
| 20260906102100 | 20 | 97 | 1.6 | 4.8 | 0.00 | 0.00 | 0.00 | 92 | 1018.7 |
| 20260906101855 | 20 | 97 | 1.6 | 6.4 | 0.00 | 0.00 | 0.00 | 92 | 1018.7 |
| 20260906101100 | 20 | 96 | 1.6 | 6.4 | 0.00 | 0.00 | 0.00 | 92 | 1018.8 |
| 20260906100601 | 20 | 109 | 1.6 | 4.8 | 0.00 | 0.00 | 0.00 | 92 | 1018.6 |
| 20260906095859 | 20 | 80 | 0.0 | 3.2 | 0.00 | 0.00 | 0.00 | 92 | 1018.5 |
| 20260906095400 | 20 | 55 | 1.6 | 6.4 | 0.00 | 0.00 | 0.00 | 92 | 1018.5 |
| 20260906094938 | 20 | 121 | 1.6 | 6.4 | 0.00 | 0.00 | 0.00 | 92 | 1018.2 |
| 20260906093549 | 20 | 70 | 1.6 | 4.8 | 0.00 | 0.00 | 0.00 | 92 | 1018.3 |
| 20260906093049 | 20 | 110 | 3.2 | 11.3 | 0.00 | 0.00 | 0.00 | 92 | 1018.2 |
| 20260906092627 | 20 | 126 | 3.2 | 11.3 | 0.00 | 0.00 | 0.00 | 92 | 1018.2 |
| 20260906091550 | 20 | 154 | 1.6 | 6.4 | 0.00 | 0.00 | 0.00 | 93 | 1018.0 |
| 20260906091049 | 20 | 121 | 3.2 | 8.0 | 0.00 | 0.00 | 0.00 | 93 | 1018.1 |
| 20260906090848 | 20 | 142 | 3.2 | 9.7 | 0.00 | 0.00 | 0.00 | 93 | 1018.2 |
| 20260906090047 | 20 | 153 | 3.2 | 9.7 | 0.00 | 0.00 | 0.00 | 93 | 1018.2 |
| 20260906085846 | 20 | 177 | 3.2 | 6.4 | 0.00 | 0.00 | 0.00 | 93 | 1018.1 |
| 20260906085048 | 20 | 138 | 1.6 | 6.4 | 0.00 | 0.00 | 0.00 | 93 | 1018.0 |
| 20260906084546 | 20 | 125 | 1.6 | 6.4 | 0.00 | 0.00 | 0.00 | 93 | 1017.9 |
| 20260906084044 | 20 | 110 | 3.2 | 6.4 | 0.00 | 0.00 | 0.00 | 94 | 1018.0 |
| 20260906083543 | 20 | 140 | 3.2 | 4.8 | 0.00 | 0.00 | 0.00 | 94 | 1018.0 |
| 20260906083043 | 20 | 145 | 1.6 | 4.8 | 0.00 | 0.00 | 0.00 | 94 | 1018.0 |
| 20260906082538 | 20 | 134 | 0.0 | 1.6 | 0.00 | 0.00 | 0.00 | 93 | 1018.1 |
| 20260906082030 | 20 | 67 | 0.0 | 1.6 | 0.00 | 0.00 | 0.00 | 93 | 1018.2 |
| 20260906081529 | 20 | 67 | 0.0 | 1.6 | 0.00 | 0.00 | 0.00 | 93 | 1018.1 |
| 20260906081030 | 20 | 67 | 0.0 | 1.6 | 0.00 | 0.00 | 0.00 | 93 | 1018.0 |
| 20260906080530 | 20 | 67 | 0.0 | 1.6 | 0.00 | 0.00 | 0.00 | 93 | 1018.0 |
| 20260906080030 | 20 | 67 | 0.0 | 1.6 | 0.00 | 0.00 | 0.00 | 93 | 1018.0 |
| 20260906075824 | 20 | 67 | 0.0 | 1.6 | 0.00 | 0.00 | 0.00 | 93 | 1018.1 |
| 20260906075321 | 20 | 67 | 0.0 | 1.6 | 0.00 | 0.00 | 0.00 | 93 | 1018.1 |
| 20260906074530 | 20 | 67 | 1.6 | 4.8 | 0.00 | 0.00 | 0.00 | 93 | 1018.2 |
| 20260906074029 | 20 | 67 | 1.6 | 4.8 | 0.00 | 0.00 | 0.00 | 93 | 1018.1 |
| 20260906073825 | 20 | 93 | 1.6 | 3.2 | 0.00 | 0.00 | 0.00 | 93 | 1018.3 |
| 20260906073030 | 20 | 93 | 0.0 | 3.2 | 0.00 | 0.00 | 0.00 | 93 | 1018.3 |
| 20260906072529 | 20 | 63 | 1.6 | 3.2 | 0.00 | 0.00 | 0.00 | 93 | 1018.2 |
| 20260906072030 | 20 | 63 | 1.6 | 4.8 | 0.00 | 0.00 | 0.00 | 93 | 1018.2 |
| 20260906071531 | 20 | 71 | 1.6 | 4.8 | 0.00 | 0.00 | 0.00 | 93 | 1018.2 |
| 20260906071030 | 20 | 166 | 0.0 | 4.8 | 0.00 | 0.00 | 0.00 | 93 | 1018.4 |
| 20260906070606 | 20 | 166 | 0.0 | 4.8 | 0.00 | 0.00 | 0.00 | 93 | 1018.5 |
| 20260906065530 | 20 | 166 | 0.0 | 1.6 | 0.00 | 0.00 | 0.00 | 92 | 1018.5 |
| 20260906065029 | 20 | 166 | 0.0 | 1.6 | 0.00 | 0.00 | 0.00 | 92 | 1018.5 |
| 20260906064531 | 20 | 166 | 0.0 | 1.6 | 0.00 | 0.00 | 0.00 | 92 | 1018.5 |
| 20260906064029 | 20 | 166 | 0.0 | 1.6 | 0.00 | 0.00 | 0.00 | 92 | 1018.5 |
| 20260906063529 | 20 | 166 | 0.0 | 1.6 | 0.00 | 0.00 | 0.00 | 91 | 1018.5 |
| 20260906063029 | 20 | 166 | 0.0 | 1.6 | 0.00 | 0.00 | 0.00 | 91 | 1018.5 |
| 20260906062529 | 20 | 166 | 0.0 | 4.8 | 0.00 | 0.00 | 0.00 | 91 | 1018.4 |
| 20260906062030 | 20 | 166 | 0.0 | 4.8 | 0.00 | 0.00 | 0.00 | 91 | 1018.5 |
| 20260906061530 | 20 | 166 | 0.0 | 0.0 | 0.00 | 0.00 | 0.00 | 91 | 1018.7 |
| 20260906061029 | 20 | 166 | 0.0 | 0.0 | 0.00 | 0.00 | 0.00 | 90 | 1018.7 |
| 20260906060528 | 20 | 166 | 0.0 | 0.0 | 0.00 | 0.00 | 0.00 | 91 | 1018.6 |
| 20260906060029 | 20 | 166 | 0.0 | 0.0 | 0.00 | 0.00 | 0.00 | 91 | 1018.5 |
| 20260906055530 | 20 | 166 | 0.0 | 0.0 | 0.00 | 0.00 | 0.00 | 90 | 1018.6 |
| 20260906055029 | 20 | 166 | 0.0 | 0.0 | 0.00 | 0.00 | 0.00 | 90 | 1018.5 |
| 20260906054529 | 20 | 166 | 0.0 | 0.0 | 0.00 | 0.00 | 0.00 | 90 | 1018.5 |
| 20260906054030 | 20 | 166 | 0.0 | 0.0 | 0.00 | 0.00 | 0.00 | 90 | 1018.5 |
| 20260906053530 | 20 | 166 | 0.0 | 0.0 | 0.00 | 0.00 | 0.00 | 90 | 1018.6 |
| 20260906053029 | 20 | 166 | 0.0 | 0.0 | 0.00 | 0.00 | 0.00 | 91 | 1018.5 |
| 20260906052821 | 20 | 166 | 0.0 | 0.0 | 0.00 | 0.00 | 0.00 | 90 | 1018.6 |
| 20260906052029 | 20 | 165 | 0.0 | 0.0 | 0.00 | 0.00 | 0.00 | 90 | 1018.5 |
| 20260906051528 | 20 | 166 | 0.0 | 0.0 | 0.00 | 0.00 | 0.00 | 90 | 1018.5 |
| 20260906051030 | 20 | 166 | 0.0 | 0.0 | 0.00 | 0.00 | 0.00 | 90 | 1018.5 |
| 20260906050530 | 20 | 166 | 0.0 | 0.0 | 0.00 | 0.00 | 0.00 | 90 | 1018.4 |
| 20260906050029 | 20 | 166 | 0.0 | 0.0 | 0.00 | 0.00 | 0.00 | 90 | 1018.5 |
| 20260906045823 | 20 | 166 | 0.0 | 0.0 | 0.00 | 0.00 | 0.00 | 89 | 1018.5 |
| 20260906045028 | 20 | 166 | 0.0 | 0.0 | 0.00 | 0.00 | 0.00 | 89 | 1018.5 |
| 20260906044529 | 20 | 166 | 0.0 | 0.0 | 0.00 | 0.00 | 0.00 | 89 | 1018.5 |
| 20260906044030 | 20 | 166 | 0.0 | 0.0 | 0.00 | 0.00 | 0.00 | 89 | 1018.5 |
| 20260906043530 | 20 | 166 | 0.0 | 0.0 | 0.00 | 0.00 | 0.00 | 88 | 1018.6 |
| 20260906043030 | 20 | 166 | 0.0 | 0.0 | 0.00 | 0.00 | 0.00 | 88 | 1018.6 |
| 20260906042530 | 20 | 166 | 0.0 | 0.0 | 0.00 | 0.00 | 0.00 | 88 | 1018.6 |
| 20260906042321 | 20 | 166 | 0.0 | 0.0 | 0.00 | 0.00 | 0.00 | 88 | 1018.7 |
| 20260906041529 | 20 | 166 | 0.0 | 0.0 | 0.00 | 0.00 | 0.00 | 88 | 1018.6 |
| 20260906041031 | 20 | 166 | 0.0 | 0.0 | 0.00 | 0.00 | 0.00 | 88 | 1018.6 |
| 20260906040532 | 20 | 166 | 0.0 | 0.0 | 0.00 | 0.00 | 0.00 | 88 | 1018.6 |
| 20260906040032 | 20 | 166 | 0.0 | 0.0 | 0.00 | 0.00 | 0.00 | 88 | 1018.6 |
| 20260906035530 | 20 | 166 | 0.0 | 0.0 | 0.00 | 0.00 | 0.00 | 87 | 1018.6 |
| 20260906035029 | 21 | 166 | 0.0 | 0.0 | 0.00 | 0.00 | 0.00 | 87 | 1018.5 |
| 20260906034529 | 21 | 166 | 0.0 | 0.0 | 0.00 | 0.00 | 0.00 | 86 | 1018.4 |
| 20260906034320 | 21 | 166 | 0.0 | 0.0 | 0.00 | 0.00 | 0.00 | 86 | 1018.6 |
| 20260906033531 | 21 | 166 | 0.0 | 0.0 | 0.00 | 0.00 | 0.00 | 86 | 1018.7 |
| 20260906033030 | 21 | 166 | 0.0 | 0.0 | 0.00 | 0.00 | 0.00 | 86 | 1018.7 |
| 20260906032530 | 21 | 166 | 0.0 | 0.0 | 0.00 | 0.00 | 0.00 | 86 | 1018.7 |
| 20260906032317 | 21 | 166 | 0.0 | 0.0 | 0.00 | 0.00 | 0.00 | 86 | 1018.7 |
| 20260906031827 | 21 | 166 | 0.0 | 0.0 | 0.00 | 0.00 | 0.00 | 86 | 1018.7 |
| 20260906031318 | 21 | 246 | 0.0 | 0.0 | 0.00 | 0.00 | 0.00 | 86 | 1018.8 |
| 20260906030531 | 21 | 246 | 0.0 | 0.0 | 0.00 | 0.00 | 0.00 | 87 | 1018.8 |
| 20260906030029 | 21 | 246 | 0.0 | 0.0 | 0.00 | 0.00 | 0.00 | 87 | 1018.9 |
| 20260906025819 | 21 | 246 | 0.0 | 0.0 | 0.00 | 0.00 | 0.00 | 86 | 1018.9 |
| 20260906025030 | 21 | 246 | 0.0 | 0.0 | 0.00 | 0.00 | 0.00 | 86 | 1019.0 |
| 20260906024531 | 21 | 246 | 0.0 | 0.0 | 0.00 | 0.00 | 0.00 | 86 | 1019.0 |
| 20260906024031 | 22 | 246 | 0.0 | 0.0 | 0.00 | 0.00 | 0.00 | 85 | 1018.9 |
| 20260906023600 | 22 | 246 | 0.0 | 0.0 | 0.00 | 0.00 | 0.00 | 84 | 1018.7 |
| 20260906022529 | 22 | 246 | 0.0 | 0.0 | 0.00 | 0.00 | 0.00 | 83 | 1018.5 |
| 20260906022030 | 22 | 246 | 0.0 | 0.0 | 0.00 | 0.00 | 0.00 | 83 | 1018.4 |
| 20260906021530 | 22 | 246 | 0.0 | 0.0 | 0.00 | 0.00 | 0.00 | 82 | 1018.3 |
| 20260906021322 | 22 | 246 | 0.0 | 1.6 | 0.00 | 0.00 | 0.00 | 82 | 1018.0 |
| 20260906020820 | 22 | 246 | 0.0 | 1.6 | 0.00 | 0.00 | 0.00 | 81 | 1017.9 |
| 20260906020029 | 23 | 246 | 0.0 | 1.6 | 0.00 | 0.00 | 0.00 | 81 | 1017.7 |
| 20260906015530 | 23 | 246 | 0.0 | 1.6 | 0.00 | 0.00 | 0.00 | 78 | 1017.6 |
| 20260906015030 | 23 | 246 | 0.0 | 1.6 | 0.00 | 0.00 | 0.00 | 78 | 1017.4 |
| 20260906014530 | 23 | 246 | 0.0 | 1.6 | 0.00 | 0.00 | 0.00 | 78 | 1017.1 |
| 20260906014030 | 23 | 246 | 1.6 | 3.2 | 0.00 | 0.00 | 0.00 | 77 | 1017.1 |
| 20260906013828 | 23 | 246 | 0.0 | 3.2 | 0.00 | 0.00 | 0.00 | 77 | 1016.9 |
| 20260906013029 | 23 | 246 | 0.0 | 1.6 | 0.00 | 0.00 | 0.00 | 76 | 1017.0 |
| 20260906012529 | 24 | 246 | 0.0 | 1.6 | 0.00 | 0.00 | 0.00 | 76 | 1017.0 |
| 20260906012030 | 24 | 246 | 0.0 | 4.8 | 0.00 | 0.00 | 0.00 | 75 | 1016.8 |
| 20260906011529 | 24 | 246 | 1.6 | 6.4 | 0.00 | 0.00 | 0.00 | 75 | 1016.8 |
| 20260906011029 | 24 | 250 | 3.2 | 8.0 | 0.00 | 0.00 | 0.00 | 74 | 1016.6 |
| 20260906010529 | 25 | 163 | 3.2 | 8.0 | 0.00 | 0.00 | 0.00 | 73 | 1016.3 |
| 20260906010029 | 25 | 102 | 3.2 | 6.4 | 0.00 | 0.00 | 0.00 | 73 | 1015.9 |
| 20260906005529 | 25 | 113 | 3.2 | 6.4 | 0.00 | 0.00 | 0.00 | 72 | 1015.9 |
| 20260906005030 | 25 | 100 | 1.6 | 9.7 | 0.00 | 0.00 | 0.00 | 72 | 1016.0 |
| 20260906004529 | 25 | 146 | 3.2 | 9.7 | 0.00 | 0.00 | 0.00 | 72 | 1015.9 |
| 20260906004029 | 25 | 128 | 3.2 | 11.3 | 0.00 | 0.00 | 0.00 | 71 | 1016.0 |
| 20260906003529 | 26 | 143 | 3.2 | 11.3 | 0.00 | 0.00 | 0.00 | 71 | 1016.0 |
| 20260906003029 | 26 | 125 | 3.2 | 12.9 | 0.00 | 0.00 | 0.00 | 71 | 1016.0 |
| 20260906002528 | 26 | 140 | 4.8 | 12.9 | 0.00 | 0.00 | 0.00 | 71 | 1016.0 |
| 20260906002029 | 26 | 80 | 4.8 | 11.3 | 0.00 | 0.00 | 0.00 | 70 | 1016.1 |
| 20260906001530 | 26 | 77 | 4.8 | 11.3 | 0.00 | 0.00 | 0.00 | 70 | 1016.1 |
| 20260906001030 | 26 | 95 | 4.8 | 12.9 | 0.00 | 0.00 | 0.00 | 70 | 1016.0 |
| 20260906000530 | 27 | 120 | 3.2 | 12.9 | 0.00 | 0.00 | 0.00 | 69 | 1015.9 |
| 20260906000031 | 27 | 149 | 4.8 | 12.9 | 0.00 | 0.00 | 0.00 | 69 | 1016.0 |
| 20260905235531 | 27 | 112 | 6.4 | 12.9 | 0.00 | 0.00 | 0.00 | 69 | 1016.0 |
| 20260905235031 | 27 | 113 | 4.8 | 14.5 | 0.00 | 0.00 | 0.00 | 68 | 1016.0 |
| 20260905234825 | 27 | 101 | 4.8 | 14.5 | 0.00 | 0.00 | 0.00 | 68 | 1016.0 |
| 20260905234033 | 27 | 35 | 6.4 | 12.9 | 0.00 | 0.00 | 0.00 | 68 | 1015.8 |
| 20260905233532 | 27 | 63 | 6.4 | 20.9 | 0.00 | 0.00 | 0.00 | 67 | 1015.7 |
| 20260905233029 | 28 | 66 | 6.4 | 20.9 | 0.00 | 0.00 | 0.00 | 66 | 1015.6 |
| 20260905232534 | 28 | 69 | 6.4 | 17.7 | 0.00 | 0.00 | 0.00 | 66 | 1015.7 |
| 20260905232028 | 28 | 125 | 3.2 | 11.3 | 0.00 | 0.00 | 0.00 | 66 | 1015.7 |
| 20260905231530 | 28 | 138 | 4.8 | 11.3 | 0.00 | 0.00 | 0.00 | 66 | 1015.6 |
| 20260905231029 | 28 | 100 | 4.8 | 12.9 | 0.00 | 0.00 | 0.00 | 66 | 1015.6 |
| 20260905230528 | 28 | 93 | 6.4 | 17.7 | 0.00 | 0.00 | 0.00 | 65 | 1015.5 |
| 20260905230028 | 28 | 43 | 8.0 | 17.7 | 0.00 | 0.00 | 0.00 | 65 | 1015.5 |
| 20260905225529 | 28 | 82 | 8.0 | 17.7 | 0.00 | 0.00 | 0.00 | 65 | 1015.4 |
| 20260905225029 | 28 | 28 | 9.7 | 19.3 | 0.00 | 0.00 | 0.00 | 64 | 1015.5 |
| 20260905224528 | 28 | 26 | 9.7 | 19.3 | 0.00 | 0.00 | 0.00 | 64 | 1015.6 |
| 20260905224029 | 28 | 44 | 8.0 | 19.3 | 0.00 | 0.00 | 0.00 | 64 | 1015.7 |
| 20260905223529 | 28 | 36 | 8.0 | 16.1 | 0.00 | 0.00 | 0.00 | 63 | 1015.7 |
| 20260905223030 | 28 | 42 | 9.7 | 20.9 | 0.00 | 0.00 | 0.00 | 63 | 1015.8 |
| 20260905222529 | 28 | 86 | 9.7 | 20.9 | 0.00 | 0.00 | 0.00 | 63 | 1015.9 |
| 20260905222029 | 28 | 136 | 9.7 | 19.3 | 0.00 | 0.00 | 0.00 | 62 | 1016.0 |
| 20260905221827 | 28 | 58 | 6.4 | 19.3 | 0.00 | 0.00 | 0.00 | 63 | 1016.0 |
| 20260905221029 | 28 | 85 | 6.4 | 17.7 | 0.00 | 0.00 | 0.00 | 64 | 1016.0 |
| 20260905220529 | 28 | 113 | 8.0 | 19.3 | 0.00 | 0.00 | 0.00 | 64 | 1015.9 |
| 20260905220029 | 28 | 63 | 8.0 | 20.9 | 0.00 | 0.00 | 0.00 | 64 | 1015.8 |
| 20260905215529 | 28 | 56 | 9.7 | 20.9 | 0.00 | 0.00 | 0.00 | 64 | 1015.7 |
| 20260905215029 | 28 | 35 | 8.0 | 20.9 | 0.00 | 0.00 | 0.00 | 64 | 1015.7 |
| 20260905214530 | 28 | 103 | 8.0 | 20.9 | 0.00 | 0.00 | 0.00 | 65 | 1015.6 |
| 20260905214328 | 28 | 53 | 9.7 | 17.7 | 0.00 | 0.00 | 0.00 | 64 | 1015.7 |
| 20260905213533 | 28 | 65 | 8.0 | 16.1 | 0.00 | 0.00 | 0.00 | 65 | 1015.8 |
| 20260905213030 | 28 | 57 | 8.0 | 16.1 | 0.00 | 0.00 | 0.00 | 66 | 1016.0 |
| 20260905212528 | 28 | 73 | 8.0 | 16.1 | 0.00 | 0.00 | 0.00 | 66 | 1016.4 |
| 20260905212110 | 28 | 98 | 4.8 | 12.9 | 0.00 | 0.00 | 0.00 | 65 | 1016.5 |
| 20260905211030 | 28 | 95 | 6.4 | 16.1 | 0.00 | 0.00 | 0.00 | 67 | 1016.8 |
| 20260905210529 | 28 | 44 | 6.4 | 16.1 | 0.00 | 0.00 | 0.00 | 66 | 1016.8 |
| 20260905210322 | 28 | 16 | 6.4 | 12.9 | 0.00 | 0.00 | 0.00 | 66 | 1016.9 |
| 20260905205529 | 28 | 5 | 6.4 | 12.9 | 0.00 | 0.00 | 0.00 | 68 | 1016.9 |
| 20260905205029 | 28 | 40 | 6.4 | 16.1 | 0.00 | 0.00 | 0.00 | 68 | 1017.0 |
| 20260905204825 | 28 | 77 | 4.8 | 16.1 | 0.00 | 0.00 | 0.00 | 68 | 1017.0 |
| 20260905204030 | 28 | 27 | 4.8 | 11.3 | 0.00 | 0.00 | 0.00 | 68 | 1017.2 |
| 20260905203530 | 28 | 130 | 6.4 | 12.9 | 0.00 | 0.00 | 0.00 | 67 | 1017.2 |
| 20260905203029 | 27 | 38 | 6.4 | 12.9 | 0.00 | 0.00 | 0.00 | 69 | 1017.3 |
| 20260905202529 | 27 | 14 | 8.0 | 16.1 | 0.00 | 0.00 | 0.00 | 68 | 1017.4 |
| 20260905202031 | 27 | 19 | 6.4 | 16.1 | 0.00 | 0.00 | 0.00 | 68 | 1017.4 |
| 20260905201527 | 27 | 5 | 6.4 | 14.5 | 0.00 | 0.00 | 0.00 | 69 | 1017.4 |
| 20260905201027 | 27 | 53 | 6.4 | 14.5 | 0.00 | 0.00 | 0.00 | 68 | 1017.6 |
| 20260905200527 | 27 | 346 | 6.4 | 9.7 | 0.00 | 0.00 | 0.00 | 69 | 1017.6 |
| 20260905200026 | 27 | 68 | 4.8 | 12.9 | 0.00 | 0.00 | 0.00 | 70 | 1017.7 |
| 20260905195527 | 27 | 355 | 6.4 | 12.9 | 0.00 | 0.00 | 0.00 | 70 | 1017.7 |
| 20260905195031 | 27 | 355 | 6.4 | 12.9 | 0.00 | 0.00 | 0.00 | 70 | 1017.8 |
| 20260905194523 | 27 | 355 | 6.4 | 12.9 | 0.00 | 0.00 | 0.00 | 70 | 1017.9 |
| 20260905194322 | 27 | 12 | 4.8 | 12.9 | 0.00 | 0.00 | 0.00 | 70 | 1017.9 |
| 20260905193825 | 27 | 16 | 3.2 | 12.9 | 0.00 | 0.00 | 0.00 | 69 | 1017.9 |
| 20260905193020 | 27 | 72 | 3.2 | 11.3 | 0.00 | 0.00 | 0.00 | 69 | 1017.9 |
| 20260905192521 | 27 | 38 | 3.2 | 11.3 | 0.00 | 0.00 | 0.00 | 70 | 1018.0 |
| 20260905192021 | 27 | 28 | 3.2 | 9.7 | 0.00 | 0.00 | 0.00 | 70 | 1017.9 |
| 20260905191519 | 27 | 93 | 3.2 | 9.7 | 0.00 | 0.00 | 0.00 | 71 | 1017.9 |
| 20260905191019 | 27 | 140 | 1.6 | 9.7 | 0.00 | 0.00 | 0.00 | 71 | 1017.8 |
| 20260905190519 | 27 | 297 | 3.2 | 9.7 | 0.00 | 0.00 | 0.00 | 71 | 1017.7 |
| 20260905190017 | 27 | 61 | 4.8 | 9.7 | 0.00 | 0.00 | 0.00 | 71 | 1017.8 |
| 20260905185511 | 26 | 141 | 4.8 | 8.0 | 0.00 | 0.00 | 0.00 | 72 | 1017.9 |
| 20260905185011 | 26 | 53 | 4.8 | 9.7 | 0.00 | 0.00 | 0.00 | 73 | 1017.8 |
| 20260905184510 | 26 | 32 | 4.8 | 9.7 | 0.00 | 0.00 | 0.00 | 73 | 1017.8 |
| 20260905184008 | 26 | 55 | 3.2 | 8.0 | 0.00 | 0.00 | 0.00 | 74 | 1017.9 |
| 20260905183800 | 26 | 66 | 3.2 | 6.4 | 0.00 | 0.00 | 0.00 | 75 | 1018.0 |
| 20260905183008 | 26 | 169 | 3.2 | 6.4 | 0.00 | 0.00 | 0.00 | 76 | 1018.1 |
| 20260905182509 | 26 | 34 | 1.6 | 6.4 | 0.00 | 0.00 | 0.00 | 75 | 1018.2 |
| 20260905182008 | 26 | 224 | 1.6 | 4.8 | 0.00 | 0.00 | 0.00 | 75 | 1018.1 |
| 20260905181508 | 26 | 53 | 3.2 | 12.9 | 0.00 | 0.00 | 0.00 | 76 | 1018.1 |
| 20260905181008 | 25 | 140 | 4.8 | 14.5 | 0.00 | 0.00 | 0.00 | 76 | 1018.2 |
| 20260905180510 | 25 | 169 | 4.8 | 14.5 | 0.00 | 0.00 | 0.00 | 77 | 1018.3 |
| 20260905180008 | 25 | 15 | 4.8 | 12.9 | 0.00 | 0.00 | 0.00 | 78 | 1018.3 |
| 20260905175508 | 25 | 158 | 4.8 | 9.7 | 0.00 | 0.00 | 0.00 | 80 | 1018.2 |
| 20260905175008 | 24 | 136 | 4.8 | 9.7 | 0.00 | 0.00 | 0.00 | 80 | 1018.3 |
| 20260905174508 | 24 | 118 | 3.2 | 9.7 | 0.00 | 0.00 | 0.00 | 80 | 1018.4 |